Regional Weather Roundup
Issued by NWS Cleveland, OH

Home | Current Version | Previous Version | Graphics & Text | Print | Product List | Glossary On
Versions: 1 2 3 4 5 6 7 8 9 10 11 12 13 14 15 16 17 18 19 20 21 22 23 24 25 26 27 28 29 30 31 32 33 34 35 36 37 38 39 40 41 42 43 44 45 46 47 48 49 50
000
ASUS41 KCLE 202002
RWRCLE
OHIO REGIONAL WEATHER ROUNDUP
NATIONAL WEATHER SERVICE CLEVELAND, OH
300 PM EST SAT DEC 20 2014

NOTE: "FAIR" INDICATES FEW OR NO CLOUDS BELOW 12,000 FEET WITH NO
SIGNIFICANT WEATHER AND/OR OBSTRUCTIONS TO VISIBILITY.

OHZ001>008-015>018-024>027-034-035-043-044-202100-
   NORTHWEST OHIO

CITY           SKY/WX    TMP DP  RH WIND       PRES   REMARKS
DEFIANCE       CLOUDY    33  22  63 NW5       30.25  WCI  29
FINDLAY        CLOUDY    32  23  69 S5        30.24S WCI  27
TOLEDO EXPRESS CLOUDY    30  22  72 S5        30.25F WCI  25
TOLEDO EXEC    CLOUDY    32  21  64 CALM      30.26S
LIMA           CLOUDY    33  23  66 SW5       30.24S WCI  29
$$

OHZ009>014-019>023-028>033-038-089-202100-
   NORTHEAST OHIO

CITY           SKY/WX    TMP DP  RH WIND       PRES   REMARKS
CLE-HOPKINS    CLOUDY    31  20  63 CALM      30.27F
CLE-LAKEFRONT  CLOUDY    32  22  66 W6        30.26S WCI  26
CUY CO. ARPT   CLOUDY    32  23  69 CALM      30.25S
LORAIN-ELYRIA  CLOUDY    30  21  69 CALM      30.26S
ASHTABULA      CLOUDY    31  21  66 CALM      30.25S
AKRON-CANTON   PTSUNNY   30  18  60 NW3       30.22F
WOOSTER        CLOUDY    29  20  69 NE5       30.24S WCI  24
MANSFIELD      CLOUDY    29  22  75 CALM      30.21F
YOUNGSTOWN     CLOUDY    30  20  66 NW7       30.22F WCI  23
$$

OHZ042-051>053-060>062-070>072-077>081-202100-
  SOUTHWEST OHIO

CITY           SKY/WX    TMP DP  RH WIND       PRES   REMARKS
CINC-COVINGTON CLOUDY    32  24  72 CALM      30.24F
CINC-LUNKEN    CLOUDY    33  25  72 CALM      30.28S
HAMILTON       CLOUDY    33  26  75 N3        30.27F
DAYTON         CLOUDY    32  22  66 CALM      30.25S
WRIGHT-PAT AFB CLOUDY    31  22  71 CALM      30.25S
DAYTON GENERAL CLOUDY    31  23  72 NW6       30.23F WCI  25
WILMINGTON     CLOUDY    30  22  72 N3        30.23F
$$

OHZ036-037-039>041-045>050-054>059-063>069-073>076-082>088-202100-
  CENTRAL AND SOUTHEAST OHIO

CITY           SKY/WX    TMP DP  RH WIND       PRES   REMARKS
COLUMBUS       CLOUDY    31  22  69 CALM      30.24F
OSU AIRPORT    CLOUDY    30  23  75 W6        30.24F WCI  24
BOLTON FIELD   CLOUDY    30  25  80 CALM      30.25S
RICKENBACK AFB NOT AVBL
NEWARK         CLOUDY    32  23  69 CALM      30.23F
MARION         CLOUDY    29  23  78 W3        30.24S HAZE
LANCASTER      CLOUDY    36  25  64 CALM      30.24F
ZANESVILLE     CLOUDY    31  21  66 CALM      30.24S
NEW PHILLY     CLOUDY    32  20  61 VRB3      30.24F
$$


USA.gov is the U.S. government's official web portal to all federal, state and local government web resources and services.